Location: Unspecified
(49.2170°N, 0.0000°E)
Time: 14:08:14
(UTC+00:00)

Vanguard 3 - Pass Details

Date: 28 January 2021
Orbit: 508 x 3261 km, 33.3° (Epoch: 28 February)

Event Time Altitude Azimuth Distance (km) Brightness Sun altitude
Rises 07:56:55 0° 259° (WSW) 4,566 10.5 2.1°
Reaches altitude 10° 08:00:52 10° 241° (WSW) 4,034 10.4 2.7°
Maximum altitude 08:07:47 19° 203° (SSW) 4,072 10.9 3.6°
Drops below altitude 10° 08:16:54 10° 167° (SSE) 5,489 12.2 4.8°
Sets 08:23:54 0° 153° (SSE) 6,909 13.2 5.8°
